| time (UTC) | temp F | wind direction | speed MPH | gust MPH | rain 1hr in | rain 24hr in | rain mn in | humidity % | barometer mb |
| 20260831044206 | 83 | 81 | 2.0 | 9.0 | 0.00 | 0.00 | 0.00 | 34 | 1025.9 |
| 20260831043606 | 83 | 85 | 3.0 | 5.0 | 0.00 | 0.00 | 0.00 | 34 | 1025.9 |
| 20260831043007 | 83 | 95 | 3.0 | 5.0 | 0.00 | 0.00 | 0.00 | 35 | 1025.9 |
| 20260831042406 | 83 | 90 | 3.0 | 6.0 | 0.00 | 0.00 | 0.00 | 34 | 1026.0 |
| 20260831041806 | 82 | 90 | 3.0 | 5.0 | 0.00 | 0.00 | 0.00 | 36 | 1026.0 |
| 20260831041205 | 82 | 109 | 2.0 | 5.0 | 0.00 | 0.00 | 0.00 | 36 | 1026.0 |
| 20260831040606 | 82 | 115 | 2.0 | 6.0 | 0.00 | 0.00 | 0.00 | 36 | 1026.1 |
| 20260831040006 | 82 | 109 | 2.0 | 5.0 | 0.00 | 0.00 | 0.00 | 36 | 1026.2 |
| 20260831035406 | 81 | 74 | 2.0 | 6.0 | 0.00 | 0.00 | 0.00 | 36 | 1026.2 |
| 20260831034806 | 81 | 75 | 2.0 | 6.0 | 0.00 | 0.00 | 0.00 | 37 | 1026.3 |
| 20260831033606 | 81 | 111 | 2.0 | 9.0 | 0.00 | 0.00 | 0.00 | 38 | 1026.4 |
| 20260831033006 | 80 | 102 | 2.0 | 8.0 | 0.00 | 0.00 | 0.00 | 39 | 1026.5 |
| 20260831031806 | 80 | 109 | 2.0 | 9.0 | 0.00 | 0.00 | 0.00 | 41 | 1026.7 |
| 20260831030606 | 79 | 332 | 1.0 | 5.0 | 0.00 | 0.00 | 0.00 | 40 | 1026.9 |
| 20260831030006 | 78 | 82 | 1.0 | 5.0 | 0.00 | 0.00 | 0.00 | 41 | 1026.9 |
| 20260831025405 | 78 | 92 | 2.0 | 5.0 | 0.00 | 0.00 | 0.00 | 43 | 1027.2 |
| 20260831024206 | 77 | 54 | 3.0 | 5.0 | 0.00 | 0.00 | 0.00 | 43 | 1027.3 |
| 20260831023605 | 76 | 71 | 2.0 | 5.0 | 0.00 | 0.00 | 0.00 | 43 | 1027.3 |
| 20260831022406 | 75 | 52 | 2.0 | 5.0 | 0.00 | 0.00 | 0.00 | 45 | 1027.6 |
| 20260831021805 | 74 | 95 | 2.0 | 5.0 | 0.00 | 0.00 | 0.00 | 47 | 1027.7 |
| 20260831021206 | 74 | 10 | 2.0 | 5.0 | 0.00 | 0.00 | 0.00 | 48 | 1027.8 |
| 20260831020606 | 73 | 36 | 2.0 | 8.0 | 0.00 | 0.00 | 0.00 | 48 | 1027.9 |
| 20260831020006 | 73 | 32 | 3.0 | 8.0 | 0.00 | 0.00 | 0.00 | 49 | 1028.0 |
| 20260831015406 | 72 | 316 | 3.0 | 5.0 | 0.00 | 0.02 | 0.00 | 49 | 1028.1 |
| 20260831014206 | 72 | 331 | 1.0 | 6.0 | 0.00 | 0.02 | 0.00 | 49 | 1028.3 |
| 20260831013606 | 72 | 359 | 2.0 | 5.0 | 0.00 | 0.02 | 0.00 | 50 | 1028.6 |
| 20260831013005 | 72 | 352 | 2.0 | 5.0 | 0.00 | 0.02 | 0.00 | 50 | 1028.7 |
| 20260831012407 | 72 | 22 | 1.0 | 5.0 | 0.00 | 0.02 | 0.00 | 50 | 1028.8 |
| 20260831011806 | 72 | 73 | 1.0 | 5.0 | 0.00 | 0.02 | 0.00 | 51 | 1029.0 |
| 20260831011205 | 71 | 101 | 1.0 | 4.0 | 0.00 | 0.02 | 0.00 | 52 | 1029.0 |
| 20260831010606 | 71 | 106 | 1.0 | 4.0 | 0.00 | 0.02 | 0.00 | 53 | 1029.1 |
| 20260831010006 | 70 | 68 | 0.0 | 4.0 | 0.00 | 0.02 | 0.00 | 53 | 1029.2 |
| 20260831004806 | 69 | 0 | 0.0 | 0.0 | 0.00 | 0.02 | 0.00 | 54 | 1029.3 |
| 20260831003606 | 68 | 89 | 1.0 | 3.0 | 0.00 | 0.02 | 0.00 | 56 | 1029.4 |
| 20260831003005 | 67 | 100 | 1.0 | 4.0 | 0.00 | 0.02 | 0.00 | 57 | 1029.5 |
| 20260831002405 | 66 | 95 | 0.0 | 4.0 | 0.00 | 0.02 | 0.00 | 59 | 1029.6 |
| 20260831001806 | 65 | 0 | 0.0 | 0.0 | 0.00 | 0.02 | 0.00 | 60 | 1029.6 |
| 20260831001206 | 64 | 0 | 0.0 | 0.0 | 0.00 | 0.02 | 0.00 | 60 | 1029.5 |
| 20260831000606 | 64 | 357 | 1.0 | 4.0 | 0.00 | 0.02 | 0.00 | 61 | 1029.5 |
| 20260831000006 | 63 | 324 | 1.0 | 4.0 | 0.00 | 0.02 | 0.00 | 62 | 1029.4 |
| 20260830233606 | 60 | 106 | 0.0 | 3.0 | 0.00 | 0.02 | 0.00 | 64 | 1029.6 |
| 20260830233005 | 60 | 0 | 0.0 | 0.0 | 0.00 | 0.02 | 0.00 | 65 | 1029.6 |
| 20260830231806 | 59 | 55 | 0.0 | 3.0 | 0.00 | 0.02 | 0.00 | 68 | 1029.7 |
| 20260830230606 | 57 | 349 | 0.0 | 3.0 | 0.00 | 0.02 | 0.00 | 71 | 1029.7 |
| 20260830230006 | 56 | 312 | 0.0 | 3.0 | 0.00 | 0.02 | 0.00 | 72 | 1029.7 |
| 20260830225405 | 56 | 0 | 0.0 | 0.0 | 0.00 | 0.02 | 0.00 | 73 | 1029.6 |
| 20260830224806 | 55 | 0 | 0.0 | 0.0 | 0.00 | 0.02 | 0.00 | 74 | 1029.7 |
| 20260830224205 | 54 | 34 | 0.0 | 1.0 | 0.00 | 0.02 | 0.00 | 76 | 1029.7 |
| 20260830223606 | 53 | 34 | 0.0 | 1.0 | 0.00 | 0.02 | 0.00 | 77 | 1029.7 |
| 20260830223006 | 53 | 0 | 0.0 | 0.0 | 0.00 | 0.02 | 0.00 | 78 | 1029.8 |
| 20260830222405 | 52 | 0 | 0.0 | 0.0 | 0.00 | 0.02 | 0.00 | 79 | 1029.8 |
| 20260830221806 | 51 | 0 | 0.0 | 0.0 | 0.00 | 0.02 | 0.00 | 80 | 1029.7 |
| 20260830221206 | 51 | 0 | 0.0 | 0.0 | 0.00 | 0.02 | 0.00 | 81 | 1029.8 |
| 20260830220005 | 49 | 0 | 0.0 | 0.0 | 0.00 | 0.02 | 0.00 | 82 | 1029.7 |
| 20260830214805 | 48 | 0 | 0.0 | 0.0 | 0.00 | 0.02 | 0.00 | 82 | 1029.5 |
| 20260830213606 | 47 | 0 | 0.0 | 0.0 | 0.00 | 0.02 | 0.00 | 81 | 1029.5 |
| 20260830213005 | 46 | 0 | 0.0 | 0.0 | 0.00 | 0.02 | 0.00 | 81 | 1029.4 |
| 20260830212406 | 46 | 0 | 0.0 | 0.0 | 0.00 | 0.02 | 0.00 | 81 | 1029.4 |
| 20260830211806 | 45 | 0 | 0.0 | 0.0 | 0.00 | 0.02 | 0.00 | 81 | 1029.5 |
| 20260830211205 | 45 | 0 | 0.0 | 0.0 | 0.00 | 0.02 | 0.00 | 81 | 1029.5 |
| 20260830210605 | 44 | 0 | 0.0 | 0.0 | 0.00 | 0.02 | 0.00 | 81 | 1029.4 |
| 20260830210006 | 44 | 0 | 0.0 | 0.0 | 0.00 | 0.02 | 0.00 | 80 | 1029.3 |
| 20260830205405 | 44 | 0 | 0.0 | 0.0 | 0.00 | 0.02 | 0.00 | 80 | 1029.3 |
| 20260830204806 | 44 | 0 | 0.0 | 0.0 | 0.00 | 0.02 | 0.00 | 80 | 1029.2 |
| 20260830204206 | 44 | 0 | 0.0 | 0.0 | 0.00 | 0.02 | 0.00 | 80 | 1029.1 |
| 20260830203605 | 44 | 0 | 0.0 | 0.0 | 0.00 | 0.02 | 0.00 | 80 | 1029.0 |
| 20260830203007 | 44 | 0 | 0.0 | 0.0 | 0.00 | 0.02 | 0.00 | 80 | 1028.9 |
| 20260830202405 | 44 | 0 | 0.0 | 0.0 | 0.00 | 0.02 | 0.00 | 80 | 1028.9 |
| 20260830201805 | 44 | 0 | 0.0 | 0.0 | 0.00 | 0.02 | 0.00 | 80 | 1028.9 |
| 20260830201206 | 44 | 0 | 0.0 | 0.0 | 0.00 | 0.02 | 0.00 | 80 | 1029.0 |
| 20260830200606 | 44 | 0 | 0.0 | 0.0 | 0.00 | 0.02 | 0.00 | 79 | 1029.0 |
| 20260830200005 | 44 | 0 | 0.0 | 0.0 | 0.00 | 0.02 | 0.00 | 79 | 1028.9 |
| 20260830195405 | 44 | 0 | 0.0 | 0.0 | 0.00 | 0.02 | 0.00 | 79 | 1028.8 |
| 20260830194806 | 44 | 0 | 0.0 | 0.0 | 0.00 | 0.02 | 0.00 | 79 | 1028.7 |
| 20260830194205 | 44 | 0 | 0.0 | 0.0 | 0.00 | 0.02 | 0.00 | 79 | 1028.6 |
| 20260830193605 | 45 | 0 | 0.0 | 0.0 | 0.00 | 0.02 | 0.00 | 79 | 1028.6 |
| 20260830193006 | 44 | 0 | 0.0 | 0.0 | 0.00 | 0.02 | 0.00 | 79 | 1028.4 |
| 20260830192406 | 44 | 0 | 0.0 | 0.0 | 0.00 | 0.02 | 0.00 | 79 | 1028.4 |
| 20260830191206 | 45 | 0 | 0.0 | 0.0 | 0.00 | 0.02 | 0.00 | 79 | 1028.2 |
| 20260830190606 | 45 | 0 | 0.0 | 0.0 | 0.00 | 0.02 | 0.00 | 79 | 1028.2 |
| 20260830190006 | 45 | 0 | 0.0 | 0.0 | 0.00 | 0.02 | 0.00 | 78 | 1028.1 |
| 20260830185406 | 45 | 0 | 0.0 | 0.0 | 0.00 | 0.02 | 0.00 | 78 | 1028.1 |
| 20260830184807 | 45 | 0 | 0.0 | 0.0 | 0.00 | 0.02 | 0.00 | 78 | 1028.1 |
| 20260830184205 | 45 | 0 | 0.0 | 0.0 | 0.00 | 0.02 | 0.00 | 78 | 1028.2 |
| 20260830183006 | 45 | 0 | 0.0 | 0.0 | 0.00 | 0.02 | 0.00 | 78 | 1028.3 |
| 20260830182406 | 46 | 0 | 0.0 | 0.0 | 0.00 | 0.02 | 0.00 | 77 | 1028.2 |
| 20260830181805 | 46 | 0 | 0.0 | 0.0 | 0.00 | 0.02 | 0.00 | 77 | 1028.3 |
| 20260830181205 | 46 | 0 | 0.0 | 0.0 | 0.00 | 0.02 | 0.00 | 78 | 1028.4 |
| 20260830180006 | 46 | 0 | 0.0 | 0.0 | 0.00 | 0.02 | 0.00 | 77 | 1028.4 |
| 20260830175406 | 46 | 0 | 0.0 | 0.0 | 0.00 | 0.02 | 0.00 | 77 | 1028.4 |
| 20260830174805 | 46 | 0 | 0.0 | 0.0 | 0.00 | 0.02 | 0.00 | 77 | 1028.4 |
| 20260830174206 | 47 | 0 | 0.0 | 0.0 | 0.00 | 0.02 | 0.00 | 77 | 1028.6 |
| 20260830173606 | 47 | 0 | 0.0 | 0.0 | 0.00 | 0.02 | 0.00 | 77 | 1028.5 |
| 20260830173005 | 47 | 0 | 0.0 | 0.0 | 0.00 | 0.02 | 0.00 | 77 | 1028.4 |
| 20260830171805 | 47 | 0 | 0.0 | 0.0 | 0.00 | 0.02 | 0.00 | 77 | 1028.6 |
| 20260830171205 | 47 | 0 | 0.0 | 0.0 | 0.00 | 0.02 | 0.00 | 77 | 1028.6 |
| 20260830170605 | 47 | 0 | 0.0 | 0.0 | 0.00 | 0.02 | 0.00 | 77 | 1028.5 |
| 20260830170006 | 47 | 0 | 0.0 | 0.0 | 0.00 | 0.02 | 0.00 | 77 | 1028.5 |
| 20260830165405 | 47 | 0 | 0.0 | 0.0 | 0.00 | 0.02 | 0.00 | 76 | 1028.8 |
| 20260830164805 | 47 | 0 | 0.0 | 0.0 | 0.00 | 0.02 | 0.00 | 76 | 1028.9 |
| 20260830164205 | 48 | 0 | 0.0 | 0.0 | 0.00 | 0.02 | 0.00 | 76 | 1028.9 |
| 20260830163606 | 48 | 0 | 0.0 | 0.0 | 0.00 | 0.02 | 0.00 | 76 | 1028.8 |
| 20260830163006 | 48 | 0 | 0.0 | 0.0 | 0.00 | 0.02 | 0.00 | 76 | 1028.8 |
| 20260830162405 | 48 | 0 | 0.0 | 0.0 | 0.00 | 0.02 | 0.00 | 76 | 1028.8 |
| 20260830161805 | 48 | 0 | 0.0 | 0.0 | 0.00 | 0.02 | 0.00 | 76 | 1028.9 |
| 20260830160605 | 48 | 0 | 0.0 | 0.0 | 0.00 | 0.02 | 0.00 | 76 | 1029.0 |
| 20260830160005 | 48 | 0 | 0.0 | 0.0 | 0.00 | 0.02 | 0.00 | 75 | 1028.9 |
| 20260830154805 | 48 | 0 | 0.0 | 0.0 | 0.00 | 0.02 | 0.00 | 75 | 1028.8 |
| 20260830154206 | 48 | 0 | 0.0 | 0.0 | 0.00 | 0.02 | 0.00 | 75 | 1028.9 |
| 20260830153605 | 49 | 0 | 0.0 | 0.0 | 0.00 | 0.02 | 0.00 | 75 | 1028.9 |
| 20260830153006 | 49 | 0 | 0.0 | 0.0 | 0.00 | 0.02 | 0.00 | 75 | 1028.9 |
| 20260830152406 | 49 | 0 | 0.0 | 0.0 | 0.00 | 0.02 | 0.00 | 74 | 1028.9 |
| 20260830151805 | 49 | 0 | 0.0 | 0.0 | 0.00 | 0.02 | 0.00 | 74 | 1028.9 |
| 20260830151205 | 49 | 0 | 0.0 | 0.0 | 0.00 | 0.02 | 0.00 | 74 | 1028.9 |
| 20260830150006 | 49 | 0 | 0.0 | 0.0 | 0.00 | 0.02 | 0.00 | 73 | 1028.9 |
| 20260830144805 | 49 | 0 | 0.0 | 0.0 | 0.00 | 0.02 | 0.00 | 73 | 1029.0 |
| 20260830144205 | 50 | 0 | 0.0 | 0.0 | 0.00 | 0.02 | 0.00 | 73 | 1029.0 |
| 20260830143605 | 50 | 0 | 0.0 | 0.0 | 0.00 | 0.02 | 0.00 | 73 | 1029.0 |
| 20260830143006 | 50 | 0 | 0.0 | 0.0 | 0.00 | 0.02 | 0.00 | 73 | 1029.0 |
| 20260830142405 | 50 | 0 | 0.0 | 0.0 | 0.00 | 0.02 | 0.00 | 73 | 1029.0 |
| 20260830141206 | 50 | 0 | 0.0 | 0.0 | 0.00 | 0.02 | 0.00 | 72 | 1029.0 |
| 20260830140605 | 51 | 0 | 0.0 | 0.0 | 0.00 | 0.02 | 0.00 | 72 | 1028.9 |
| 20260830140006 | 51 | 0 | 0.0 | 0.0 | 0.00 | 0.02 | 0.00 | 72 | 1028.9 |
| 20260830135405 | 51 | 0 | 0.0 | 0.0 | 0.00 | 0.02 | 0.02 | 72 | 1028.9 |
| 20260830134805 | 51 | 0 | 0.0 | 0.0 | 0.00 | 0.02 | 0.02 | 72 | 1028.9 |
| 20260830134205 | 51 | 0 | 0.0 | 0.0 | 0.00 | 0.02 | 0.02 | 71 | 1029.0 |
| 20260830133605 | 51 | 0 | 0.0 | 0.0 | 0.00 | 0.02 | 0.02 | 71 | 1029.1 |
| 20260830133005 | 51 | 0 | 0.0 | 0.0 | 0.00 | 0.02 | 0.02 | 71 | 1029.0 |
| 20260830132405 | 51 | 0 | 0.0 | 0.0 | 0.00 | 0.02 | 0.02 | 71 | 1029.0 |
| 20260830131805 | 51 | 0 | 0.0 | 0.0 | 0.00 | 0.02 | 0.02 | 71 | 1029.0 |
| 20260830131205 | 52 | 0 | 0.0 | 0.0 | 0.00 | 0.02 | 0.02 | 71 | 1029.0 |
| 20260830130605 | 52 | 0 | 0.0 | 0.0 | 0.00 | 0.02 | 0.02 | 70 | 1029.0 |
| 20260830130005 | 52 | 0 | 0.0 | 0.0 | 0.00 | 0.02 | 0.02 | 70 | 1028.8 |
| 20260830125405 | 52 | 0 | 0.0 | 0.0 | 0.00 | 0.02 | 0.02 | 70 | 1028.9 |
| 20260830124806 | 52 | 0 | 0.0 | 0.0 | 0.00 | 0.02 | 0.02 | 70 | 1028.9 |
| 20260830124206 | 53 | 0 | 0.0 | 0.0 | 0.00 | 0.02 | 0.02 | 69 | 1028.8 |
| 20260830123605 | 53 | 0 | 0.0 | 0.0 | 0.00 | 0.02 | 0.02 | 69 | 1028.8 |
| 20260830123005 | 53 | 0 | 0.0 | 0.0 | 0.00 | 0.02 | 0.02 | 68 | 1028.8 |
| 20260830122404 | 53 | 0 | 0.0 | 0.0 | 0.00 | 0.02 | 0.02 | 68 | 1028.8 |
| 20260830121805 | 53 | 0 | 0.0 | 0.0 | 0.00 | 0.02 | 0.02 | 67 | 1028.8 |
| 20260830121205 | 53 | 0 | 0.0 | 0.0 | 0.00 | 0.02 | 0.02 | 67 | 1028.7 |
| 20260830120005 | 54 | 0 | 0.0 | 0.0 | 0.00 | 0.02 | 0.02 | 67 | 1028.8 |
| 20260830115406 | 54 | 0 | 0.0 | 0.0 | 0.00 | 0.02 | 0.02 | 66 | 1028.8 |
| 20260830114806 | 54 | 0 | 0.0 | 0.0 | 0.00 | 0.02 | 0.02 | 66 | 1028.8 |
| 20260830114206 | 54 | 0 | 0.0 | 0.0 | 0.00 | 0.02 | 0.02 | 65 | 1028.7 |
| 20260830113605 | 55 | 0 | 0.0 | 0.0 | 0.00 | 0.02 | 0.02 | 65 | 1028.7 |
| 20260830112405 | 55 | 0 | 0.0 | 0.0 | 0.00 | 0.02 | 0.02 | 65 | 1028.5 |
| 20260830111205 | 56 | 0 | 0.0 | 0.0 | 0.00 | 0.02 | 0.02 | 64 | 1028.3 |
| 20260830110605 | 56 | 0 | 0.0 | 0.0 | 0.00 | 0.02 | 0.02 | 64 | 1028.3 |
| 20260830110005 | 56 | 0 | 0.0 | 0.0 | 0.00 | 0.02 | 0.02 | 63 | 1028.4 |
| 20260830105405 | 56 | 0 | 0.0 | 0.0 | 0.00 | 0.02 | 0.02 | 63 | 1028.5 |
| 20260830104805 | 56 | 0 | 0.0 | 0.0 | 0.00 | 0.02 | 0.02 | 62 | 1028.5 |
| 20260830104205 | 57 | 0 | 0.0 | 0.0 | 0.00 | 0.02 | 0.02 | 62 | 1028.5 |
| 20260830103605 | 57 | 0 | 0.0 | 0.0 | 0.00 | 0.02 | 0.02 | 62 | 1028.5 |
| 20260830103005 | 57 | 0 | 0.0 | 0.0 | 0.00 | 0.02 | 0.02 | 62 | 1028.4 |
| 20260830102405 | 57 | 0 | 0.0 | 0.0 | 0.00 | 0.02 | 0.02 | 61 | 1028.3 |
| 20260830101805 | 58 | 0 | 0.0 | 0.0 | 0.00 | 0.02 | 0.02 | 60 | 1028.4 |
| 20260830101205 | 58 | 0 | 0.0 | 0.0 | 0.00 | 0.02 | 0.02 | 60 | 1028.1 |
| 20260830100605 | 58 | 0 | 0.0 | 0.0 | 0.00 | 0.02 | 0.02 | 59 | 1028.0 |
| 20260830100005 | 59 | 0 | 0.0 | 0.0 | 0.00 | 0.02 | 0.02 | 59 | 1028.0 |
| 20260830094805 | 60 | 0 | 0.0 | 0.0 | 0.00 | 0.02 | 0.02 | 59 | 1027.9 |
| 20260830094205 | 60 | 0 | 0.0 | 0.0 | 0.00 | 0.02 | 0.02 | 58 | 1027.8 |
| 20260830093605 | 61 | 0 | 0.0 | 0.0 | 0.00 | 0.02 | 0.02 | 58 | 1027.7 |
| 20260830093005 | 61 | 0 | 0.0 | 0.0 | 0.00 | 0.02 | 0.02 | 57 | 1027.7 |
| 20260830092405 | 62 | 0 | 0.0 | 0.0 | 0.00 | 0.02 | 0.02 | 56 | 1027.6 |
| 20260830091805 | 62 | 0 | 0.0 | 0.0 | 0.00 | 0.02 | 0.02 | 55 | 1027.6 |
| 20260830091205 | 63 | 0 | 0.0 | 0.0 | 0.00 | 0.02 | 0.02 | 54 | 1027.6 |
| 20260830090605 | 63 | 0 | 0.0 | 0.0 | 0.00 | 0.02 | 0.02 | 53 | 1027.6 |
| 20260830090005 | 64 | 0 | 0.0 | 0.0 | 0.00 | 0.02 | 0.02 | 53 | 1027.5 |
| 20260830084205 | 65 | 0 | 0.0 | 0.0 | 0.00 | 0.02 | 0.02 | 51 | 1027.4 |
| 20260830083604 | 65 | 0 | 0.0 | 0.0 | 0.00 | 0.02 | 0.02 | 50 | 1027.2 |
| 20260830083006 | 66 | 0 | 0.0 | 0.0 | 0.00 | 0.02 | 0.02 | 48 | 1027.0 |
| 20260830081805 | 67 | 0 | 0.0 | 0.0 | 0.00 | 0.02 | 0.02 | 47 | 1026.8 |
| 20260830081204 | 67 | 0 | 0.0 | 0.0 | 0.00 | 0.02 | 0.02 | 45 | 1026.7 |
| 20260830080605 | 67 | 0 | 0.0 | 0.0 | 0.00 | 0.02 | 0.02 | 44 | 1026.6 |
| 20260830080005 | 68 | 0 | 0.0 | 0.0 | 0.00 | 0.02 | 0.02 | 43 | 1026.6 |
| 20260830075405 | 68 | 0 | 1.0 | 0.0 | 0.00 | 0.02 | 0.02 | 41 | 1026.5 |
| 20260830074806 | 69 | 99 | 1.0 | 3.0 | 0.00 | 0.02 | 0.02 | 40 | 1026.5 |
| 20260830074205 | 69 | 102 | 1.0 | 4.0 | 0.00 | 0.02 | 0.02 | 39 | 1026.4 |
| 20260830073605 | 69 | 105 | 1.0 | 4.0 | 0.00 | 0.02 | 0.02 | 38 | 1026.4 |
| 20260830073005 | 70 | 102 | 2.0 | 4.0 | 0.00 | 0.02 | 0.02 | 38 | 1026.4 |
| 20260830072405 | 70 | 108 | 2.0 | 8.0 | 0.00 | 0.02 | 0.02 | 38 | 1026.3 |
| 20260830071205 | 71 | 109 | 2.0 | 6.0 | 0.00 | 0.02 | 0.02 | 35 | 1026.3 |
| 20260830070604 | 72 | 113 | 2.0 | 5.0 | 0.00 | 0.02 | 0.02 | 35 | 1026.4 |
| 20260830070005 | 72 | 114 | 3.0 | 6.0 | 0.00 | 0.02 | 0.02 | 34 | 1026.3 |
| 20260830065405 | 73 | 115 | 3.0 | 9.0 | 0.00 | 0.02 | 0.02 | 33 | 1026.2 |
| 20260830064805 | 73 | 114 | 3.0 | 9.0 | 0.00 | 0.02 | 0.02 | 32 | 1026.3 |
| 20260830064204 | 74 | 109 | 3.0 | 5.0 | 0.00 | 0.02 | 0.02 | 32 | 1026.2 |
| 20260830063605 | 74 | 102 | 4.0 | 8.0 | 0.00 | 0.02 | 0.02 | 33 | 1026.2 |
| 20260830062405 | 76 | 112 | 4.0 | 12.0 | 0.00 | 0.02 | 0.02 | 33 | 1026.2 |
| 20260830061805 | 76 | 97 | 4.0 | 10.0 | 0.00 | 0.02 | 0.02 | 34 | 1026.1 |
| 20260830061206 | 77 | 96 | 3.0 | 12.0 | 0.00 | 0.02 | 0.02 | 34 | 1026.1 |
| 20260830060604 | 78 | 102 | 3.0 | 10.0 | 0.00 | 0.02 | 0.02 | 34 | 1026.1 |
| 20260830055404 | 78 | 112 | 3.0 | 9.0 | 0.00 | 0.02 | 0.02 | 32 | 1026.2 |
| 20260830054805 | 79 | 93 | 4.0 | 10.0 | 0.00 | 0.02 | 0.02 | 32 | 1026.1 |
| 20260830054205 | 79 | 86 | 3.0 | 10.0 | 0.00 | 0.02 | 0.02 | 31 | 1026.1 |
| 20260830053604 | 80 | 114 | 3.0 | 9.0 | 0.00 | 0.02 | 0.02 | 32 | 1026.2 |
| 20260830053005 | 81 | 112 | 3.0 | 6.0 | 0.00 | 0.02 | 0.02 | 30 | 1026.2 |
| 20260830052405 | 81 | 94 | 2.0 | 6.0 | 0.00 | 0.02 | 0.02 | 31 | 1026.2 |
| 20260830051205 | 82 | 117 | 2.0 | 5.0 | 0.00 | 0.02 | 0.02 | 31 | 1026.3 |
| 20260830050605 | 81 | 119 | 3.0 | 5.0 | 0.00 | 0.02 | 0.02 | 32 | 1026.4 |
| 20260830050004 | 81 | 123 | 3.0 | 9.0 | 0.00 | 0.02 | 0.02 | 33 | 1026.5 |
| 20260830045405 | 81 | 119 | 3.0 | 8.0 | 0.00 | 0.02 | 0.02 | 32 | 1026.5 |
| 20260830044804 | 81 | 107 | 3.0 | 6.0 | 0.00 | 0.02 | 0.02 | 32 | 1026.5 |